Weather History for Huntsville, AL

Change the Weather History Date:

Friday, September 6, 2013

  Actual Average Record
Temperature  
Mean Temperature 76 °F 77 °F  
Max Temperature 89 °F 88 °F 107 °F (1925)
Min Temperature 62 °F 66 °F 50 °F (1957)
Degree Days  
Heating Degree Days 0 0  
Month to date heating degree days 0 0  
Since 1 July heating degree days 0 0  
Cooling Degree Days 11 12  
Month to date cooling degree days 73 76  
Year to date cooling degree days 1539 1671  
Growing Degree Days 26 (Base 50)    
Moisture  
Dew Point 63 °F    
Average Humidity 70    
Maximum Humidity 100    
Minimum Humidity 39    
Precipitation  
Precipitation 0.00 in 0.12 in 2.64 in (1949)
Month to date precipitation 0.90 0.67  
Year to date precipitation 44.52 36.99  
Snow  
Snow 0.00 in - - ()
Month to date snowfall 0.0  
Since 1 July snowfall 0.0  
Since 1 September snowfall 0.0  
Snow Depth 0.00 in    
Sea Level Pressure  
Sea Level Pressure 30.11 in    
Wind  
Wind Speed 1 mph (SE)    
Max Wind Speed 7 mph    
Max Gust Speed 10 mph    
Visibility 8 miles    
Events Fog    
T = Trace of Precipitation, MM = Missing Value Source: NWS Daily Summary

Daily Weather History Graph

Daily Weather History Graph

Search for Another Location

Airport:

Trip Planner

Search our weather history database for the weather conditions in past years. The results will help you decide how hot, cold, wet, or windy it might be!

Date:

Astronomy

Sep. 06, 2013 Rise Set
Actual Time 6:23 AM CDT 7:06 PM CDT
Civil Twilight 5:58 AM CDT 7:31 PM CDT
Nautical Twilight 5:28 AM CDT 8:01 PM CDT
Astronomical Twilight 4:57 AM CDT 8:32 PM CDT
Moon 7:30 AM CDT (9/6) 7:36 PM CDT (9/6)
Length of Visible Light 13h 33m
Length of Day
12h 42m
New Moon, 2% of the Moon is Illuminated
Sep 6
New Moon
Sep 12
First Quarter
Sep 19
Full
Sep 26
Last Quarter
Oct 4
New

Hourly Weather History & Observations

Time (CDT) Temp. Heat Index Dew Point Humidity Pressure Visibility Wind Dir Wind Speed Gust Speed Precip Events Conditions
12:53 AM 64.9 °F - 63.0 °F 93% 30.12 in 10.0 mi NNW 4.6 mph - N/A   Clear
1:53 AM 66.9 °F - 63.0 °F 87% 30.11 in 10.0 mi Calm Calm - N/A   Clear
2:53 AM 64.0 °F - 62.1 °F 93% 30.11 in 10.0 mi Calm Calm - N/A   Clear
3:53 AM 64.0 °F - 62.1 °F 93% 30.11 in 10.0 mi Calm Calm - N/A   Clear
4:37 AM 62.6 °F - 60.8 °F 94% 30.12 in 1.0 mi Calm Calm - N/A   Clear
4:42 AM 62.6 °F - 60.8 °F 94% 30.13 in 3.0 mi Calm Calm - N/A   Clear
4:53 AM 62.1 °F - 61.0 °F 96% 30.11 in 2.5 mi Calm Calm - N/A   Partly Cloudy
4:55 AM 62.6 °F - 60.8 °F 94% 30.13 in 1.0 mi Calm Calm - N/A   Mist
5:05 AM 62.6 °F - 60.8 °F 94% 30.13 in 2.0 mi Calm Calm - N/A   Partly Cloudy
5:31 AM 62.6 °F - 60.8 °F 94% 30.13 in 5.0 mi Calm Calm - N/A   Clear
5:53 AM 63.0 °F - 62.1 °F 97% 30.12 in 8.0 mi Calm Calm - N/A   Partly Cloudy
6:53 AM 63.0 °F - 62.1 °F 97% 30.13 in 8.0 mi Calm Calm - N/A Fog Shallow Fog
7:53 AM 69.1 °F - 64.9 °F 87% 30.15 in 10.0 mi Calm Calm - N/A   Partly Cloudy
8:53 AM 75.0 °F - 66.0 °F 73% 30.14 in 10.0 mi Calm Calm - N/A   Partly Cloudy
9:53 AM 79.0 °F - 64.9 °F 62% 30.14 in 10.0 mi ESE 5.8 mph - N/A   Partly Cloudy
10:53 AM 82.0 °F 83.4 °F 64.0 °F 54% 30.15 in 10.0 mi East 4.6 mph - N/A   Partly Cloudy
11:53 AM 84.0 °F 84.9 °F 63.0 °F 49% 30.14 in 10.0 mi ESE 4.6 mph - N/A   Clear
12:53 PM 86.0 °F 86.1 °F 61.0 °F 43% 30.13 in 10.0 mi Calm Calm - N/A   Clear
1:53 PM 88.0 °F 87.9 °F 61.0 °F 40% 30.10 in 10.0 mi Calm Calm - N/A   Partly Cloudy
2:53 PM 88.0 °F 87.1 °F 59.0 °F 37% 30.09 in 10.0 mi Calm Calm - N/A   Partly Cloudy
3:53 PM 88.0 °F 88.4 °F 62.1 °F 42% 30.07 in 10.0 mi SW 4.6 mph - N/A   Partly Cloudy
4:53 PM 88.0 °F 88.7 °F 63.0 °F 43% 30.06 in 10.0 mi Calm Calm - N/A   Partly Cloudy
5:53 PM 84.9 °F 86.6 °F 64.9 °F 51% 30.05 in 10.0 mi SSW 3.5 mph - N/A   Partly Cloudy
6:53 PM 82.0 °F 84.9 °F 68.0 °F 62% 30.05 in 10.0 mi Calm Calm - N/A   Partly Cloudy
7:53 PM 73.9 °F - 66.9 °F 79% 30.05 in 10.0 mi Calm Calm - N/A   Clear
8:53 PM 73.0 °F - 66.9 °F 81% 30.07 in 10.0 mi Calm Calm - N/A   Clear
9:53 PM 73.0 °F - 66.9 °F 81% 30.07 in 10.0 mi Calm Calm - N/A   Clear
10:53 PM 70.0 °F - 66.9 °F 90% 30.07 in 10.0 mi SE 4.6 mph - N/A   Clear
11:53 PM 70.0 °F - 68.0 °F 93% 30.07 in 10.0 mi Calm Calm - N/A   Clear